Time,TemperatureF,DewpointF,PressureIn,WindDirection,WindDirectionDegrees,WindSpeedMPH,WindSpeedGustMPH,Humidity,HourlyPrecipIn,Conditions,Clouds,dailyrainin,SoftwareType,DateUTC
2013-05-09 00:03:00,59.0,-99.9,-100.00,North,-999,-999.0,-999.0,-999,0.00,,,0.10,,2013-05-09 04:03:00,
2013-05-09 00:13:00,59.0,-99.9,-100.00,North,-999,-999.0,-999.0,-999,0.00,,,0.10,,2013-05-09 04:13:00,
2013-05-09 00:23:00,59.0,-99.9,-100.00,North,-999,-999.0,-999.0,-999,0.00,,,0.10,,2013-05-09 04:23:00,
2013-05-09 00:33:00,59.0,-99.9,-100.00,North,-999,-999.0,-999.0,-999,0.00,,,0.10,,2013-05-09 04:33:00,
2013-05-09 00:43:00,59.0,-99.9,-100.00,North,-999,-999.0,-999.0,-999,0.00,,,0.10,,2013-05-09 04:43:00,
2013-05-09 01:02:00,59.0,-99.9,-100.00,North,-999,-999.0,-999.0,-999,0.00,,,0.10,,2013-05-09 05:02:00,
2013-05-09 01:12:00,59.0,-99.9,-100.00,North,-999,-999.0,-999.0,-999,0.00,,,0.10,,2013-05-09 05:12:00,
2013-05-09 01:22:00,59.0,-99.9,-100.00,North,-999,-999.0,-999.0,-999,0.00,,,0.10,,2013-05-09 05:22:00,
2013-05-09 01:32:00,59.0,-99.9,-100.00,North,-999,-999.0,-999.0,-999,0.00,,,0.10,,2013-05-09 05:32:00,
2013-05-09 01:43:00,59.0,-99.9,-100.00,North,-999,-999.0,-999.0,-999,0.00,,,0.10,,2013-05-09 05:43:00,
2013-05-09 02:02:00,58.0,-99.9,-100.00,North,-999,-999.0,-999.0,-999,0.01,,,0.11,,2013-05-09 06:02:00,
2013-05-09 02:12:00,58.0,-99.9,-100.00,North,-999,-999.0,-999.0,-999,0.01,,,0.11,,2013-05-09 06:12:00,
2013-05-09 02:22:00,58.0,-99.9,-100.00,North,-999,-999.0,-999.0,-999,0.01,,,0.11,,2013-05-09 06:22:00,
2013-05-09 02:32:00,58.0,-99.9,-100.00,North,-999,-999.0,-999.0,-999,0.01,,,0.11,,2013-05-09 06:32:00,
2013-05-09 02:42:00,58.0,-99.9,-100.00,North,-999,-999.0,-999.0,-999,0.01,,,0.11,,2013-05-09 06:42:00,
2013-05-09 03:02:00,57.0,-99.9,-100.00,North,-999,-999.0,-999.0,-999,0.12,,,0.23,,2013-05-09 07:02:00,
2013-05-09 03:12:00,57.0,-99.9,-100.00,North,-999,-999.0,-999.0,-999,0.12,,,0.23,,2013-05-09 07:12:00,
2013-05-09 03:22:00,57.0,-99.9,-100.00,North,-999,-999.0,-999.0,-999,0.12,,,0.23,,2013-05-09 07:22:00,
2013-05-09 03:32:00,57.0,-99.9,-100.00,North,-999,-999.0,-999.0,-999,0.12,,,0.23,,2013-05-09 07:32:00,
2013-05-09 03:43:00,57.0,-99.9,-100.00,North,-999,-999.0,-999.0,-999,0.12,,,0.23,,2013-05-09 07:43:00,
2013-05-09 04:02:00,56.0,-99.9,-100.00,North,-999,-999.0,-999.0,-999,0.05,,,0.28,,2013-05-09 08:02:00,
2013-05-09 04:11:00,56.0,-99.9,-100.00,North,-999,-999.0,-999.0,-999,0.05,,,0.28,,2013-05-09 08:11:00,
2013-05-09 04:22:00,56.0,-99.9,-100.00,North,-999,-999.0,-999.0,-999,0.05,,,0.28,,2013-05-09 08:22:00,
2013-05-09 04:32:00,56.0,-99.9,-100.00,North,-999,-999.0,-999.0,-999,0.05,,,0.28,,2013-05-09 08:32:00,
2013-05-09 04:42:00,56.0,-99.9,-100.00,North,-999,-999.0,-999.0,-999,0.05,,,0.28,,2013-05-09 08:42:00,
2013-05-09 05:02:00,56.0,-99.9,-100.00,North,-999,-999.0,-999.0,-999,0.01,,,0.29,,2013-05-09 09:02:00,
2013-05-09 05:12:00,56.0,-99.9,-100.00,North,-999,-999.0,-999.0,-999,0.01,,,0.29,,2013-05-09 09:12:00,
2013-05-09 05:22:00,56.0,-99.9,-100.00,North,-999,-999.0,-999.0,-999,0.01,,,0.29,,2013-05-09 09:22:00,
2013-05-09 05:32:00,56.0,-99.9,-100.00,North,-999,-999.0,-999.0,-999,0.01,,,0.29,,2013-05-09 09:32:00,
2013-05-09 05:43:00,56.0,-99.9,-100.00,North,-999,-999.0,-999.0,-999,0.01,,,0.29,,2013-05-09 09:43:00,
2013-05-09 06:03:00,56.0,-99.9,-100.00,North,-999,-999.0,-999.0,-999,0.00,,,0.29,,2013-05-09 10:03:00,
2013-05-09 06:13:00,56.0,-99.9,-100.00,North,-999,-999.0,-999.0,-999,0.00,,,0.29,,2013-05-09 10:13:00,
2013-05-09 06:23:00,56.0,-99.9,-100.00,North,-999,-999.0,-999.0,-999,0.00,,,0.29,,2013-05-09 10:23:00,
2013-05-09 06:33:00,56.0,-99.9,-100.00,North,-999,-999.0,-999.0,-999,0.00,,,0.29,,2013-05-09 10:33:00,
2013-05-09 06:42:00,56.0,-99.9,-100.00,North,-999,-999.0,-999.0,-999,0.00,,,0.29,,2013-05-09 10:42:00,
2013-05-09 07:03:00,56.0,-99.9,-100.00,North,-999,-999.0,-999.0,-999,0.00,,,0.29,,2013-05-09 11:03:00,
2013-05-09 07:12:00,56.0,-99.9,-100.00,North,-999,-999.0,-999.0,-999,0.00,,,0.29,,2013-05-09 11:12:00,
2013-05-09 07:23:00,56.0,-99.9,-100.00,North,-999,-999.0,-999.0,-999,0.00,,,0.29,,2013-05-09 11:23:00,
2013-05-09 07:32:00,56.0,-99.9,-100.00,North,-999,-999.0,-999.0,-999,0.00,,,0.29,,2013-05-09 11:32:00,
2013-05-09 07:42:00,56.0,-99.9,-100.00,North,-999,-999.0,-999.0,-999,0.00,,,0.29,,2013-05-09 11:42:00,
2013-05-09 08:02:00,56.0,-99.9,-100.00,North,-999,-999.0,-999.0,-999,0.00,,,0.29,,2013-05-09 12:02:00,
2013-05-09 08:12:00,56.0,-99.9,-100.00,North,-999,-999.0,-999.0,-999,0.00,,,0.29,,2013-05-09 12:12:00,
2013-05-09 08:22:00,56.0,-99.9,-100.00,North,-999,-999.0,-999.0,-999,0.00,,,0.29,,2013-05-09 12:22:00,
2013-05-09 08:32:00,56.0,-99.9,-100.00,North,-999,-999.0,-999.0,-999,0.00,,,0.29,,2013-05-09 12:32:00,
2013-05-09 08:43:00,56.0,-99.9,-100.00,North,-999,-999.0,-999.0,-999,0.00,,,0.29,,2013-05-09 12:43:00,
2013-05-09 09:02:00,56.0,-99.9,-100.00,North,-999,-999.0,-999.0,-999,0.00,,,0.29,,2013-05-09 13:02:00,
2013-05-09 09:12:00,56.0,-99.9,-100.00,North,-999,-999.0,-999.0,-999,0.00,,,0.29,,2013-05-09 13:12:00,
2013-05-09 09:22:00,56.0,-99.9,-100.00,North,-999,-999.0,-999.0,-999,0.00,,,0.29,,2013-05-09 13:22:00,
2013-05-09 09:32:00,56.0,-99.9,-100.00,North,-999,-999.0,-999.0,-999,0.00,,,0.29,,2013-05-09 13:32:00,
2013-05-09 09:42:00,56.0,-99.9,-100.00,North,-999,-999.0,-999.0,-999,0.00,,,0.29,,2013-05-09 13:42:00,
2013-05-09 10:02:00,57.0,-99.9,-100.00,North,-999,-999.0,-999.0,-999,0.00,,,0.29,,2013-05-09 14:02:00,
2013-05-09 10:11:00,57.0,-99.9,-100.00,North,-999,-999.0,-999.0,-999,0.00,,,0.29,,2013-05-09 14:11:00,
2013-05-09 10:22:00,57.0,-99.9,-100.00,North,-999,-999.0,-999.0,-999,0.00,,,0.29,,2013-05-09 14:22:00,
2013-05-09 10:32:00,57.0,-99.9,-100.00,North,-999,-999.0,-999.0,-999,0.00,,,0.29,,2013-05-09 14:32:00,
2013-05-09 10:42:00,57.0,-99.9,-100.00,North,-999,-999.0,-999.0,-999,0.00,,,0.29,,2013-05-09 14:42:00,
2013-05-09 11:02:00,58.0,-99.9,-100.00,North,-999,-999.0,-999.0,-999,0.00,,,0.29,,2013-05-09 15:02:00,
2013-05-09 11:12:00,58.0,-99.9,-100.00,North,-999,-999.0,-999.0,-999,0.00,,,0.29,,2013-05-09 15:12:00,
2013-05-09 11:22:00,58.0,-99.9,-100.00,North,-999,-999.0,-999.0,-999,0.00,,,0.29,,2013-05-09 15:22:00,
2013-05-09 11:33:00,58.0,-99.9,-100.00,North,-999,-999.0,-999.0,-999,0.00,,,0.29,,2013-05-09 15:33:00,
2013-05-09 11:43:00,58.0,-99.9,-100.00,North,-999,-999.0,-999.0,-999,0.00,,,0.29,,2013-05-09 15:43:00,
2013-05-09 12:03:00,60.0,-99.9,-100.00,North,-999,-999.0,-999.0,-999,0.00,,,-99.99,,2013-05-09 16:03:00,
2013-05-09 12:13:00,60.0,-99.9,-100.00,North,-999,-999.0,-999.0,-999,0.00,,,-99.99,,2013-05-09 16:13:00,
2013-05-09 12:23:00,60.0,-99.9,-100.00,North,-999,-999.0,-999.0,-999,0.00,,,-99.99,,2013-05-09 16:23:00,
2013-05-09 12:33:00,60.0,-99.9,-100.00,North,-999,-999.0,-999.0,-999,0.00,,,-99.99,,2013-05-09 16:33:00,
2013-05-09 12:42:00,60.0,-99.9,-100.00,North,-999,-999.0,-999.0,-999,0.00,,,-99.99,,2013-05-09 16:42:00,
2013-05-09 13:03:00,62.0,-99.9,-100.00,North,-999,-999.0,-999.0,-999,0.00,,,0.29,,2013-05-09 17:03:00,
2013-05-09 13:12:00,62.0,-99.9,-100.00,North,-999,-999.0,-999.0,-999,0.00,,,0.29,,2013-05-09 17:12:00,
2013-05-09 13:22:00,62.0,-99.9,-100.00,North,-999,-999.0,-999.0,-999,0.00,,,0.29,,2013-05-09 17:22:00,
2013-05-09 13:33:00,62.0,-99.9,-100.00,North,-999,-999.0,-999.0,-999,0.00,,,0.29,,2013-05-09 17:33:00,
2013-05-09 13:42:00,62.0,-99.9,-100.00,North,-999,-999.0,-999.0,-999,0.00,,,0.29,,2013-05-09 17:42:00,
2013-05-09 14:02:00,62.0,-99.9,-100.00,North,-999,-999.0,-999.0,-999,0.00,,,-99.99,,2013-05-09 18:02:00,
2013-05-09 14:12:00,62.0,-99.9,-100.00,North,-999,-999.0,-999.0,-999,0.00,,,-99.99,,2013-05-09 18:12:00,
2013-05-09 14:22:00,62.0,-99.9,-100.00,North,-999,-999.0,-999.0,-999,0.00,,,-99.99,,2013-05-09 18:22:00,
2013-05-09 14:32:00,62.0,-99.9,-100.00,North,-999,-999.0,-999.0,-999,0.00,,,-99.99,,2013-05-09 18:32:00,
2013-05-09 14:42:00,62.0,-99.9,-100.00,North,-999,-999.0,-999.0,-999,0.00,,,-99.99,,2013-05-09 18:42:00,
2013-05-09 15:01:00,62.0,-99.9,-100.00,North,-999,-999.0,-999.0,-999,0.01,,,0.30,,2013-05-09 19:01:00,
2013-05-09 15:12:00,62.0,-99.9,-100.00,North,-999,-999.0,-999.0,-999,0.01,,,0.30,,2013-05-09 19:12:00,
2013-05-09 15:22:00,62.0,-99.9,-100.00,North,-999,-999.0,-999.0,-999,0.01,,,0.30,,2013-05-09 19:22:00,
2013-05-09 15:32:00,62.0,-99.9,-100.00,North,-999,-999.0,-999.0,-999,0.01,,,0.30,,2013-05-09 19:32:00,
2013-05-09 15:42:00,62.0,-99.9,-100.00,North,-999,-999.0,-999.0,-999,0.01,,,0.30,,2013-05-09 19:42:00,
2013-05-09 16:02:00,61.0,-99.9,-100.00,North,-999,-999.0,-999.0,-999,0.01,,,0.31,,2013-05-09 20:02:00,
2013-05-09 16:11:00,61.0,-99.9,-100.00,North,-999,-999.0,-999.0,-999,0.01,,,0.31,,2013-05-09 20:11:00,
2013-05-09 16:22:00,61.0,-99.9,-100.00,North,-999,-999.0,-999.0,-999,0.01,,,0.31,,2013-05-09 20:22:00,
2013-05-09 16:32:00,61.0,-99.9,-100.00,North,-999,-999.0,-999.0,-999,0.01,,,0.31,,2013-05-09 20:32:00,
2013-05-09 16:42:00,61.0,-99.9,-100.00,North,-999,-999.0,-999.0,-999,0.01,,,0.31,,2013-05-09 20:42:00,
2013-05-09 17:02:00,62.0,-99.9,-100.00,North,-999,-999.0,-999.0,-999,0.00,,,0.31,,2013-05-09 21:02:00,
2013-05-09 17:12:00,62.0,-99.9,-100.00,North,-999,-999.0,-999.0,-999,0.00,,,0.31,,2013-05-09 21:12:00,
2013-05-09 17:23:00,62.0,-99.9,-100.00,North,-999,-999.0,-999.0,-999,0.00,,,0.31,,2013-05-09 21:23:00,
2013-05-09 17:33:00,62.0,-99.9,-100.00,North,-999,-999.0,-999.0,-999,0.00,,,0.31,,2013-05-09 21:33:00,
2013-05-09 17:43:00,62.0,-99.9,-100.00,North,-999,-999.0,-999.0,-999,0.00,,,0.31,,2013-05-09 21:43:00,
2013-05-09 18:03:00,60.0,-99.9,-100.00,North,-999,-999.0,-999.0,-999,0.00,,,0.31,,2013-05-09 22:03:00,
2013-05-09 18:13:00,60.0,-99.9,-100.00,North,-999,-999.0,-999.0,-999,0.00,,,0.31,,2013-05-09 22:13:00,
2013-05-09 18:23:00,60.0,-99.9,-100.00,North,-999,-999.0,-999.0,-999,0.00,,,0.31,,2013-05-09 22:23:00,
2013-05-09 18:33:00,60.0,-99.9,-100.00,North,-999,-999.0,-999.0,-999,0.00,,,0.31,,2013-05-09 22:33:00,
2013-05-09 18:42:00,60.0,-99.9,-100.00,North,-999,-999.0,-999.0,-999,0.00,,,0.31,,2013-05-09 22:42:00,
2013-05-09 19:03:00,59.0,-99.9,-100.00,North,-999,-999.0,-999.0,-999,0.00,,,0.26,,2013-05-09 23:03:00,
2013-05-09 19:12:00,59.0,-99.9,-100.00,North,-999,-999.0,-999.0,-999,0.00,,,0.26,,2013-05-09 23:12:00,
2013-05-09 19:22:00,59.0,-99.9,-100.00,North,-999,-999.0,-999.0,-999,0.00,,,0.26,,2013-05-09 23:22:00,
2013-05-09 19:32:00,59.0,-99.9,-100.00,North,-999,-999.0,-999.0,-999,0.00,,,0.26,,2013-05-09 23:32:00,
2013-05-09 19:43:00,59.0,-99.9,-100.00,North,-999,-999.0,-999.0,-999,0.00,,,0.26,,2013-05-09 23:43:00,
2013-05-09 20:02:00,57.0,-99.9,-100.00,North,-999,-999.0,-999.0,-999,0.00,,,0.22,,2013-05-10 00:02:00,
2013-05-09 20:11:00,57.0,-99.9,-100.00,North,-999,-999.0,-999.0,-999,0.00,,,0.22,,2013-05-10 00:11:00,
2013-05-09 20:22:00,57.0,-99.9,-100.00,North,-999,-999.0,-999.0,-999,0.00,,,0.22,,2013-05-10 00:22:00,
2013-05-09 20:32:00,57.0,-99.9,-100.00,North,-999,-999.0,-999.0,-999,0.00,,,0.22,,2013-05-10 00:32:00,
2013-05-09 20:42:00,57.0,-99.9,-100.00,North,-999,-999.0,-999.0,-999,0.00,,,0.22,,2013-05-10 00:42:00,
2013-05-09 21:01:00,55.0,-99.9,-100.00,North,-999,-999.0,-999.0,-999,0.00,,,0.22,,2013-05-10 01:01:00,
2013-05-09 21:11:00,55.0,-99.9,-100.00,North,-999,-999.0,-999.0,-999,0.00,,,0.22,,2013-05-10 01:11:00,
2013-05-09 21:22:00,55.0,-99.9,-100.00,North,-999,-999.0,-999.0,-999,0.00,,,0.22,,2013-05-10 01:22:00,
2013-05-09 21:32:00,55.0,-99.9,-100.00,North,-999,-999.0,-999.0,-999,0.00,,,0.22,,2013-05-10 01:32:00,
2013-05-09 21:42:00,55.0,-99.9,-100.00,North,-999,-999.0,-999.0,-999,0.00,,,0.22,,2013-05-10 01:42:00,
2013-05-09 22:12:00,54.0,-99.9,-100.00,North,-999,-999.0,-999.0,-999,0.00,,,0.22,,2013-05-10 02:12:00,
2013-05-09 22:22:00,54.0,-99.9,-100.00,North,-999,-999.0,-999.0,-999,0.00,,,0.22,,2013-05-10 02:22:00,
2013-05-09 22:32:00,54.0,-99.9,-100.00,North,-999,-999.0,-999.0,-999,0.00,,,0.22,,2013-05-10 02:32:00,
2013-05-09 22:42:00,54.0,-99.9,-100.00,North,-999,-999.0,-999.0,-999,0.00,,,0.22,,2013-05-10 02:42:00,
2013-05-09 23:01:00,54.0,-99.9,-100.00,North,-999,-999.0,-999.0,-999,0.00,,,0.21,,2013-05-10 03:01:00,
2013-05-09 23:11:00,54.0,-99.9,-100.00,North,-999,-999.0,-999.0,-999,0.00,,,0.21,,2013-05-10 03:11:00,
2013-05-09 23:22:00,54.0,-99.9,-100.00,North,-999,-999.0,-999.0,-999,0.00,,,0.21,,2013-05-10 03:22:00,
2013-05-09 23:33:00,54.0,-99.9,-100.00,North,-999,-999.0,-999.0,-999,0.00,,,0.21,,2013-05-10 03:33:00,
2013-05-09 23:43:00,54.0,-99.9,-100.00,North,-999,-999.0,-999.0,-999,0.00,,,0.21,,2013-05-10 03:43:00,